Wind_Speed
65 53 48 48 49 46 50 46 51 52 55 56 51 45 40 35 38 46 49 47 49 49 50 51 50 50 49 50 53 54 54 54 46 42 40 38 36 35
67 61 52 53 56 58 51 53 57 56 56 42 42 41 36 42 43 43 44 45 45 45 47 47 49 49 50 52 54 55 55 52 43 40 39 37 34 34
67 64 49 60 60 59 57 52 55 60 46 41 42 38 44 41 41 40 41 42 43 44 45 47 48 49 49 50 55 57 52 48 42 38 37 36 33 31
54 55 54 56 56 64 64 59 62 48 39 46 45 45 44 41 38 42 41 40 40 42 44 47 45 46 48 54 56 53 49 46 40 38 36 35 31 29
47 56 63 74 66 57 69 62 48 37 41 47 44 44 43 42 44 44 43 41 42 43 43 45 43 44 46 54 57 52 47 45 42 38 36 34 32 29
52 62 61 70 61 63 56 41 37 39 45 49 45 42 45 43 43 42 41 42 42 43 44 45 41 45 49 55 52 47 45 43 40 37 36 35 33 32
59 65 68 62 51 42 38 41 40 44 47 54 44 41 46 46 44 41 40 41 41 41 41 40 40 45 51 50 46 44 42 39 38 36 36 35 35 35
57 54 48 48 49 41 33 43 43 47 50 51 50 42 44 45 44 40 41 40 41 38 37 37 39 44 46 45 44 43 40 36 34 34 35 36 35 35
36 37 34 34 29 28 34 49 47 45 48 52 48 45 44 47 45 41 40 39 36 37 35 37 38 41 41 43 42 41 38 34 33 33 33 34 34 35
33 31 32 35 31 36 46 46 47 50 52 52 52 49 46 46 42 42 41 39 36 36 34 35 38 37 40 43 40 38 34 32 32 32 33 34 34 33
36 38 41 42 45 47 42 44 46 51 52 54 53 50 49 44 39 40 40 36 33 33 33 35 35 36 39 40 38 34 30 29 30 30 32 32 33 34
46 46 47 48 50 49 48 48 51 49 54 54 53 51 48 42 38 37 34 32 32 31 33 34 34 34 39 37 35 31 29 27 29 29 29 30 31 31
52 50 48 53 55 54 51 51 48 52 55 54 53 46 42 38 37 34 32 32 32 31 32 32 33 33 35 34 31 28 28 27 29 29 29 29 30 30
51 54 51 41 47 54 51 42 41 50 51 50 47 44 37 36 36 33 30 32 30 30 31 30 31 32 32 31 27 26 28 26 27 28 30 30 31 31
55 60 51 48 41 34 41 39 45 46 48 46 47 45 40 39 38 33 31 31 29 29 30 30 30 30 30 28 27 26 27 25 25 27 28 30 31 32
48 45 40 38 38 40 36 42 36 38 40 46 45 42 41 41 40 31 32 31 30 31 30 29 30 29 28 26 26 27 28 27 27 28 31 33 35 37
54 47 50 42 41 36 32 36 33 35 35 41 44 39 42 42 35 31 32 32 30 32 30 29 31 30 28 27 26 29 28 30 31 33 36 39 41 42
53 51 49 46 39 42 42 42 44 42 42 43 38 40 42 42 32 32 33 32 31 32 30 30 32 31 30 29 30 33 34 37 37 39 40 43 46 48
52 49 47 47 47 44 42 39 37 42 40 41 40 39 44 37 32 33 33 32 31 32 30 32 33 31 33 33 35 36 38 40 41 43 46 48 50 53
38 40 41 43 43 39 38 40 39 41 42 42 42 43 44 33 33 33 34 31 31 32 33 33 33 34 36 37 41 42 42 44 47 48 51 52 54 57
37 38 36 37 38 37 37 39 42 42 41 40 46 49 35 31 33 33 32 31 32 34 35 35 36 38 38 41 45 46 46 49 50 51 53 55 57 60
36 33 34 35 33 38 45 47 44 41 38 40 45 36 30 31 30 30 31 33 34 36 36 38 40 41 42 44 44 47 50 52 53 56 57 59 61 62
39 36 35 38 40 37 36 38 37 35 39 42 39 31 31 29 27 30 32 34 36 36 37 40 43 43 45 45 47 50 53 56 58 59 61 63 64 64
Wind_Direction
268 266 273 275 279 282 284 287 287 290 292 291 284 270 266 263 256 262 272 278 283 290 293 296 295 297 303 304 308 312 313 311 305 295 290 287 287 291
266 267 271 278 280 282 281 283 289 286 283 279 267 263 258 257 263 271 279 286 289 292 295 294 295 298 303 306 309 314 312 311 306 299 291 287 286 289
263 264 269 273 280 283 278 283 284 281 280 261 252 257 259 264 269 277 285 289 291 291 292 293 297 301 305 307 312 315 311 310 306 301 293 289 287 289
273 258 272 273 287 282 283 276 279 277 262 248 249 257 262 268 276 280 286 287 288 289 292 295 301 307 307 308 315 313 312 310 307 299 291 288 287 290
278 265 276 277 282 283 269 266 275 261 251 252 258 263 265 270 275 280 284 288 289 291 293 296 302 304 306 311 314 313 312 310 308 302 290 286 285 288
282 272 287 275 270 273 271 265 256 254 249 251 258 264 269 272 277 281 285 284 287 289 293 297 301 302 309 313 312 311 311 307 307 303 296 290 288 288
278 279 278 267 263 263 260 260 254 253 256 261 260 265 271 272 277 281 281 282 284 292 294 298 300 306 312 314 312 310 307 306 305 300 293 290 290 293
278 277 269 260 265 260 254 255 254 253 259 264 261 262 270 273 277 280 281 282 286 288 291 295 302 307 311 311 309 308 303 303 302 299 293 290 290 292
284 300 273 267 253 237 236 254 254 255 263 264 262 262 267 270 274 274 276 280 284 287 291 293 300 307 307 306 305 303 300 301 300 299 297 295 292 291
276 277 262 278 268 267 256 259 260 261 260 257 262 262 266 265 269 269 271 279 280 284 288 297 301 304 306 308 309 306 303 302 301 300 300 299 298 296
264 256 255 258 254 256 248 260 266 265 260 254 259 262 263 261 262 267 271 274 276 282 291 295 298 301 306 310 310 308 309 308 306 305 304 303 302 300
266 256 253 249 247 249 250 254 259 267 259 252 252 254 256 253 257 263 266 268 272 280 288 292 296 301 305 310 308 308 310 310 310 308 307 306 305 305
259 258 253 251 249 247 247 250 252 264 254 252 251 249 251 254 255 258 259 263 271 283 286 290 294 300 304 308 306 309 309 310 310 310 310 310 309 308
253 251 252 251 253 249 242 239 253 254 253 253 249 245 247 252 256 253 255 262 271 280 284 286 292 300 303 304 306 307 306 309 312 313 313 313 313 312
261 262 271 255 256 250 247 238 247 248 248 246 246 244 243 248 254 248 251 259 269 275 280 283 291 295 298 302 303 303 303 308 312 313 313 315 316 316
255 247 252 258 248 268 263 264 248 252 244 243 243 246 249 253 250 242 250 258 266 272 275 281 287 290 294 298 302 299 302 304 307 306 306 307 309 310
250 255 249 255 257 251 255 259 262 270 255 247 246 250 251 254 237 241 249 257 264 269 275 280 285 287 291 294 298 296 299 303 306 305 305 305 306 307
253 254 250 248 251 249 250 248 255 256 247 246 241 247 251 245 234 243 250 257 263 268 273 280 284 287 288 290 294 294 298 302 303 303 303 303 303 305
248 248 247 250 248 252 256 255 255 255 244 235 237 243 248 234 238 243 250 256 263 269 275 279 283 289 293 293 291 294 297 299 300 300 300 302 303 303
245 245 248 247 249 249 253 252 264 250 235 236 242 241 233 231 241 246 252 257 263 270 275 278 282 286 290 288 286 288 292 297 300 300 299 301 303 304
244 245 248 250 250 248 252 249 255 233 232 238 243 235 223 230 240 248 255 263 268 271 274 278 281 283 286 288 287 288 291 295 299 299 300 302 303 304
243 247 251 248 244 248 252 252 241 224 229 241 234 227 228 235 241 250 260 266 270 271 273 275 279 284 286 289 288 289 293 297 301 302 302 302 302 302
234 238 241 249 254 253 244 232 221 222 236 236 227 228 233 238 245 256 263 267 269 271 272 275 279 281 284 289 292 294 296 298 300 302 303 303 302 302
Height
5680 5682 5681 5681 5683 5685 5684 5683 5682 5679 5676 5674 5675 5675 5677 5677 5675 5675 5675 5672 5670 5670 5667 5665 5661 5656 5652 5646 5638 5629 5622 5615 5609 5603 5601 5598 5594 5591
5665 5667 5667 5667 5668 5670 5673 5671 5669 5667 5663 5661 5662 5662 5665 5664 5663 5665 5664 5663 5661 5660 5658 5654 5650 5646 5641 5636 5628 5618 5610 5605 5598 5594 5591 5588 5584 5581
5652 5651 5652 5653 5652 5656 5656 5657 5656 5654 5652 5650 5651 5652 5654 5654 5654 5654 5653 5652 5651 5649 5647 5643 5639 5635 5630 5625 5616 5607 5601 5596 5590 5586 5583 5579 5576 5572
5636 5633 5638 5637 5639 5638 5640 5642 5641 5644 5642 5640 5641 5643 5643 5647 5646 5644 5641 5640 5639 5638 5635 5633 5628 5625 5620 5614 5606 5597 5592 5586 5581 5577 5575 5572 5568 5564
5623 5622 5624 5619 5620 5621 5622 5623 5630 5631 5633 5632 5631 5636 5635 5636 5636 5635 5633 5631 5629 5628 5625 5622 5616 5611 5609 5602 5595 5588 5582 5577 5574 5569 5566 5563 5560 5556
5609 5604 5608 5606 5609 5610 5608 5611 5616 5618 5620 5622 5621 5623 5625 5624 5625 5627 5623 5619 5620 5617 5615 5613 5608 5601 5598 5592 5585 5579 5574 5568 5564 5560 5557 5554 5551 5548
5594 5596 5596 5595 5593 5594 5597 5600 5605 5608 5609 5610 5611 5612 5615 5615 5614 5614 5613 5612 5611 5608 5605 5602 5598 5592 5587 5581 5576 5570 5564 5559 5556 5552 5549 5546 5543 5539
5583 5582 5580 5580 5582 5585 5588 5591 5596 5598 5598 5599 5599 5599 5603 5604 5605 5604 5602 5602 5600 5599 5595 5592 5587 5583 5578 5573 5567 5561 5556 5550 5547 5544 5541 5538 5534 5531
5571 5572 5571 5573 5573 5577 5579 5579 5584 5586 5587 5588 5588 5588 5590 5591 5594 5594 5591 5590 5588 5588 5584 5581 5579 5574 5570 5565 5558 5553 5548 5542 5539 5536 5532 5529 5525 5522
5559 5562 5563 5566 5568 5569 5570 5570 5572 5576 5575 5575 5577 5578 5577 5577 5577 5581 5581 5578 5577 5577 5573 5570 5568 5566 5562 5556 5550 5545 5539 5534 5531 5527 5524 5520 5517 5513
5547 5549 5549 5551 5552 5554 5556 5560 5561 5562 5562 5562 5564 5566 5566 5565 5565 5567 5568 5567 5567 5567 5563 5561 5557 5554 5551 5545 5541 5537 5530 5527 5524 5520 5517 5513 5509 5505
5533 5534 5536 5538 5538 5540 5542 5545 5546 5548 5547 5548 5550 5551 5551 5552 5554 5555 5554 5555 5555 5556 5554 5552 5549 5545 5541 5537 5533 5528 5523 5519 5516 5513 5509 5506 5502 5498
5517 5519 5521 5522 5524 5524 5526 5529 5532 5533 5533 5535 5535 5537 5538 5540 5542 5543 5544 5545 5543 5544 5543 5542 5539 5535 5533 5527 5523 5519 5515 5511 5508 5505 5502 5498 5495 5491
5502 5504 5504 5505 5507 5508 5509 5511 5515 5516 5520 5522 5523 5523 5526 5527 5530 5532 5534 5535 5534 5533 5532 5531 5530 5526 5522 5518 5516 5511 5509 5503 5499 5496 5494 5490 5487 5483
5486 5487 5487 5491 5494 5494 5494 5494 5497 5501 5504 5507 5511 5511 5511 5515 5517 5520 5522 5523 5524 5522 5522 5521 5519 5516 5512 5509 5506 5503 5502 5497 5490 5488 5485 5481 5478 5474
5472 5473 5475 5478 5481 5481 5484 5485 5487 5492 5491 5494 5498 5500 5500 5504 5505 5507 5512 5513 5512 5513 5511 5509 5508 5506 5503 5500 5497 5495 5492 5488 5482 5479 5475 5472 5468 5465
5456 5459 5464 5465 5468 5471 5474 5476 5477 5480 5481 5483 5487 5489 5490 5492 5494 5498 5500 5502 5501 5502 5500 5499 5498 5496 5493 5491 5488 5486 5483 5480 5474 5470 5466 5461 5458 5454
5442 5446 5450 5453 5455 5459 5462 5463 5466 5468 5469 5472 5474 5478 5480 5482 5483 5488 5490 5491 5490 5490 5489 5488 5488 5486 5483 5481 5479 5477 5474 5469 5464 5461 5457 5451 5445 5441
5427 5430 5434 5440 5444 5448 5450 5452 5453 5455 5457 5461 5461 5466 5469 5471 5475 5477 5479 5479 5480 5479 5477 5477 5476 5475 5473 5471 5468 5466 5462 5457 5452 5448 5444 5440 5433 5427
5414 5419 5423 5427 5431 5434 5436 5439 5441 5443 5445 5448 5452 5454 5456 5461 5465 5467 5469 5469 5468 5468 5467 5467 5466 5463 5462 5461 5458 5455 5450 5446 5440 5435 5431 5425 5419 5413
5403 5407 5411 5414 5417 5420 5423 5426 5429 5431 5434 5439 5443 5445 5445 5449 5454 5457 5459 5457 5457 5457 5458 5457 5455 5452 5451 5449 5446 5442 5438 5433 5427 5422 5417 5412 5405 5396
5392 5396 5399 5401 5404 5407 5409 5412 5415 5420 5426 5431 5435 5436 5437 5441 5444 5447 5446 5446 5446 5447 5446 5445 5443 5441 5439 5436 5432 5427 5423 5418 5412 5407 5402 5397 5391 5385
5380 5383 5386 5390 5392 5394 5397 5402 5407 5413 5418 5421 5423 5426 5430 5433 5434 5435 5436 5436 5435 5434 5434 5433 5431 5428 5426 5422 5418 5413 5409 5404 5397 5391 5385 5379 5372 5365